This is the latest recevied weather packets stored in our database for station/object N3SBK. If no packets are shown the sender has not sent any weather packets the latest 10 day(s).
| Time | Temp. | Humidity | Pressure | Rain* | Wind** | Luminosity | Snow |
|---|---|---|---|---|---|---|---|
| 1777945014 | 18.33° C | 54% | 1000.3 hPa | 0 mm | - | 0 W/m² | - |
| 1777944711 | 18.33° C | 55% | 1000.1 hPa | 0 mm | - | 0 W/m² | - |
| 1777944409 | 18.33° C | 53% | 1000.2 hPa | 0 mm | - | 0 W/m² | - |
| 1777944106 | 18.33° C | 54% | 1000 hPa | 0 mm | - | 0 W/m² | - |
| 1777943802 | 18.33° C | 53% | 999.8 hPa | 0 mm | - | 0 W/m² | - |
| 1777943499 | 18.33° C | 53% | 999.6 hPa | 0 mm | - | 0 W/m² | - |
| 1777943199 | 18.33° C | 53% | 999.8 hPa | 0 mm | - | 0 W/m² | - |
| 1777942897 | 18.33° C | 54% | 999.6 hPa | 0 mm | - | 0 W/m² | - |
| 1777942592 | 18.33° C | 54% | 999.9 hPa | 0 mm | - | 0 W/m² | - |
| 1777942290 | 18.33° C | 54% | 1000 hPa | 0 mm | - | 0 W/m² | - |
| 1777941987 | 18.33° C | 54% | 999.6 hPa | 0 mm | - | 0 W/m² | - |
| 1777941683 | 18.89° C | 53% | 999.8 hPa | 0 mm | - | 0 W/m² | - |
| 1777941381 | 18.89° C | 52% | 999.6 hPa | 0 mm | - | 0 W/m² | - |
| 1777941078 | 18.89° C | 52% | 999.8 hPa | 0 mm | - | 0 W/m² | - |
| 1777940774 | 18.89° C | 51% | 999.5 hPa | 0 mm | - | 0 W/m² | - |
| 1777940472 | 19.44° C | 51% | 999.6 hPa | 0 mm | - | 1 W/m² | - |
| 1777940169 | 19.44° C | 51% | 999.5 hPa | 0 mm | - | 1 W/m² | - |
| 1777939867 | 19.44° C | 52% | 999.3 hPa | 0 mm | - | 2 W/m² | - |
| 1777939563 | 19.44° C | 51% | 999.5 hPa | 0 mm | - | 2 W/m² | - |
| 1777939261 | 19.44° C | 51% | 999.9 hPa | 0 mm | - | 2 W/m² | - |
| 1777938958 | 19.44° C | 51% | 999.5 hPa | 0 mm | - | 5 W/m² | - |
| 1777938654 | 19.44° C | 51% | 999.6 hPa | 0 mm | - | 7 W/m² | - |
| 1777938351 | 19.44° C | 50% | 999.5 hPa | 0 mm | - | 12 W/m² | - |
| 1777938048 | 19.44° C | 50% | 999.4 hPa | 0 mm | - | 8 W/m² | - |
| 1777937744 | 20° C | 50% | 999.5 hPa | 0 mm | - | 11 W/m² | - |
* Rain latest hour (hover to see other rain measurements)
** Current wind speed in m/s (hover to see current wind gust speed)